Time,TemperatureF,DewpointF,PressureIn,WindDirection,WindDirectionDegrees,WindSpeedMPH,WindSpeedGustMPH,Humidity,HourlyPrecipIn,Conditions,Clouds,dailyrainin,SoftwareType,DateUTC
2013-07-01 00:00:00,71.8,57.0,29.86,NNE,15,0.0,6.0,61,0.00,,,0.00,weatherlink.com 1.10,2013-07-01 06:00:00,
2013-07-01 00:15:00,71.3,57.0,29.86,NNW,346,1.0,5.0,62,0.00,,,0.00,weatherlink.com 1.10,2013-07-01 06:15:00,
2013-07-01 00:30:00,70.8,57.0,29.86,NW,323,2.0,7.0,63,0.00,,,0.00,weatherlink.com 1.10,2013-07-01 06:30:00,
2013-07-01 00:46:00,70.3,58.0,29.86,NNW,348,1.0,3.0,65,0.00,,,0.00,weatherlink.com 1.10,2013-07-01 06:46:00,
2013-07-01 01:01:00,69.7,58.0,29.86,NNW,335,0.0,2.0,66,0.00,,,0.00,weatherlink.com 1.10,2013-07-01 07:01:00,
2013-07-01 01:16:00,69.2,58.0,29.86,NW,319,0.0,3.0,68,0.00,,,0.00,weatherlink.com 1.10,2013-07-01 07:16:00,
2013-07-01 01:31:00,68.7,58.0,29.86,West,278,1.0,3.0,69,0.00,,,0.00,weatherlink.com 1.10,2013-07-01 07:31:00,
2013-07-01 01:46:00,68.6,59.0,29.85,NNW,331,0.0,2.0,71,0.00,,,0.00,weatherlink.com 1.10,2013-07-01 07:46:00,
2013-07-01 02:01:00,68.9,59.0,29.86,WNW,303,1.0,4.0,71,0.00,,,0.00,weatherlink.com 1.10,2013-07-01 08:01:00,
2013-07-01 02:16:00,68.9,60.0,29.86,WNW,300,0.0,3.0,72,0.00,,,0.00,weatherlink.com 1.10,2013-07-01 08:16:00,
2013-07-01 02:31:00,67.9,59.0,29.86,NW,316,0.0,2.0,72,0.00,,,0.00,weatherlink.com 1.10,2013-07-01 08:31:00,
2013-07-01 02:46:00,67.1,59.0,29.86,NNW,339,0.0,1.0,74,0.00,,,0.00,weatherlink.com 1.10,2013-07-01 08:46:00,
2013-07-01 03:16:00,67.1,59.0,29.86,NNW,333,1.0,3.0,74,0.00,,,0.00,weatherlink.com 1.10,2013-07-01 09:16:00,
2013-07-01 03:31:00,67.1,59.0,29.86,NNE,22,0.0,7.0,75,0.00,,,0.00,weatherlink.com 1.10,2013-07-01 09:31:00,
2013-07-01 03:46:00,67.9,59.0,29.86,NNW,333,0.0,5.0,74,0.00,,,0.00,weatherlink.com 1.10,2013-07-01 09:46:00,
2013-07-01 04:01:00,67.3,60.0,29.86,NW,311,0.0,3.0,76,0.00,,,0.00,weatherlink.com 1.10,2013-07-01 10:01:00,
2013-07-01 04:16:00,67.4,61.0,29.87,West,278,0.0,4.0,80,0.00,,,0.00,weatherlink.com 1.10,2013-07-01 10:16:00,
2013-07-01 04:31:00,67.4,61.0,29.88,WNW,284,2.0,9.0,79,0.00,,,0.00,weatherlink.com 1.10,2013-07-01 10:31:00,
2013-07-01 04:47:00,67.0,61.0,29.88,NW,320,0.0,6.0,80,0.00,,,0.00,weatherlink.com 1.10,2013-07-01 10:47:00,
2013-07-01 05:01:00,66.8,60.0,29.89,NNW,342,1.0,4.0,80,0.00,,,0.00,weatherlink.com 1.10,2013-07-01 11:01:00,
2013-07-01 05:17:00,66.2,60.0,29.90,West,260,0.0,1.0,81,0.00,,,0.00,weatherlink.com 1.10,2013-07-01 11:17:00,
2013-07-01 05:32:00,65.9,61.0,29.91,NNW,338,1.0,5.0,83,0.00,,,0.00,weatherlink.com 1.10,2013-07-01 11:32:00,
2013-07-01 05:47:00,66.4,61.0,29.91,NW,316,1.0,5.0,82,0.00,,,0.00,weatherlink.com 1.10,2013-07-01 11:47:00,
2013-07-01 06:02:00,67.0,61.0,29.91,NW,314,0.0,2.0,81,0.00,,,0.00,weatherlink.com 1.10,2013-07-01 12:02:00,
2013-07-01 06:17:00,67.1,60.0,29.91,NNE,25,0.0,4.0,79,0.00,,,0.00,weatherlink.com 1.10,2013-07-01 12:17:00,
2013-07-01 06:32:00,68.4,61.0,29.92,WNW,295,2.0,6.0,78,0.00,,,0.00,weatherlink.com 1.10,2013-07-01 12:32:00,
2013-07-01 06:47:00,70.7,62.0,29.92,North,360,0.0,5.0,74,0.00,,,0.00,weatherlink.com 1.10,2013-07-01 12:47:00,
2013-07-01 07:02:00,72.0,63.0,29.93,NNW,348,0.0,7.0,72,0.00,,,0.00,weatherlink.com 1.10,2013-07-01 13:02:00,
2013-07-01 07:17:00,73.6,63.0,29.93,NW,312,0.0,5.0,69,0.00,,,0.00,weatherlink.com 1.10,2013-07-01 13:17:00,
2013-07-01 07:32:00,75.1,63.0,29.93,North,8,1.0,8.0,66,0.00,,,0.00,weatherlink.com 1.10,2013-07-01 13:32:00,
2013-07-01 07:47:00,75.8,63.0,29.94,West,262,7.0,8.0,64,0.00,,,0.00,weatherlink.com 1.10,2013-07-01 13:47:00,
2013-07-01 08:02:00,77.2,62.0,29.93,NW,314,0.0,8.0,60,0.00,,,0.00,weatherlink.com 1.10,2013-07-01 14:02:00,
2013-07-01 08:17:00,78.0,62.0,29.94,NW,323,7.0,9.0,59,0.00,,,0.00,weatherlink.com 1.10,2013-07-01 14:17:00,
2013-07-01 08:32:00,78.7,62.0,29.94,NNW,339,0.0,8.0,56,0.00,,,0.00,weatherlink.com 1.10,2013-07-01 14:32:00,
2013-07-01 08:47:00,79.8,62.0,29.94,WNW,303,3.0,9.0,54,0.00,,,0.00,weatherlink.com 1.10,2013-07-01 14:47:00,
2013-07-01 09:02:00,80.8,61.0,29.94,WNW,294,3.0,9.0,51,0.00,,,0.00,weatherlink.com 1.10,2013-07-01 15:02:00,
2013-07-01 09:17:00,80.7,61.0,29.94,NW,312,4.0,15.0,51,0.00,,,0.00,weatherlink.com 1.10,2013-07-01 15:17:00,
2013-07-01 09:32:00,81.0,61.0,29.94,North,1,5.0,13.0,51,0.00,,,0.00,weatherlink.com 1.10,2013-07-01 15:32:00,
2013-07-01 10:02:00,82.7,61.0,29.94,NNE,31,0.0,16.0,48,0.00,,,0.00,weatherlink.com 1.10,2013-07-01 16:02:00,
2013-07-01 10:17:00,82.4,61.0,29.94,NNE,19,5.0,14.0,48,0.00,,,0.00,weatherlink.com 1.10,2013-07-01 16:17:00,
2013-07-01 10:32:00,82.4,61.0,29.94,NNW,340,1.0,13.0,48,0.00,,,0.00,weatherlink.com 1.10,2013-07-01 16:32:00,
2013-07-01 10:47:00,83.8,61.0,29.94,NW,308,4.0,16.0,47,0.00,,,0.00,weatherlink.com 1.10,2013-07-01 16:47:00,
2013-07-01 11:02:00,83.5,62.0,29.94,NW,321,6.0,10.0,48,0.00,,,0.00,weatherlink.com 1.10,2013-07-01 17:02:00,
2013-07-01 11:17:00,82.7,59.0,29.93,WNW,298,1.0,8.0,45,0.00,,,0.00,weatherlink.com 1.10,2013-07-01 17:17:00,
2013-07-01 11:32:00,82.5,60.0,29.93,NNE,29,1.0,9.0,46,0.00,,,0.00,weatherlink.com 1.10,2013-07-01 17:32:00,
2013-07-01 11:48:00,84.8,61.0,29.93,WSW,248,2.0,11.0,45,0.00,,,0.00,weatherlink.com 1.10,2013-07-01 17:48:00,
2013-07-01 12:03:00,84.5,60.0,29.93,WNW,298,3.0,10.0,43,0.00,,,0.00,weatherlink.com 1.10,2013-07-01 18:03:00,
2013-07-01 12:18:00,86.4,59.0,29.92,North,5,0.0,10.0,40,0.00,,,0.00,weatherlink.com 1.10,2013-07-01 18:18:00,
2013-07-01 12:33:00,85.1,61.0,29.92,NW,325,5.0,7.0,44,0.00,,,0.00,weatherlink.com 1.10,2013-07-01 18:33:00,
2013-07-01 12:47:00,85.3,60.0,29.92,WNW,288,4.0,13.0,43,0.00,,,0.00,weatherlink.com 1.10,2013-07-01 18:47:00,
2013-07-01 13:02:00,86.2,58.0,29.92,NW,322,5.0,12.0,39,0.00,,,0.00,weatherlink.com 1.10,2013-07-01 19:02:00,
2013-07-01 13:17:00,86.9,58.0,29.91,WNW,286,3.0,12.0,38,0.00,,,0.00,weatherlink.com 1.10,2013-07-01 19:17:00,
2013-07-01 13:32:00,86.5,59.0,29.91,North,351,0.0,9.0,39,0.00,,,0.00,weatherlink.com 1.10,2013-07-01 19:32:00,
2013-07-01 13:47:00,86.2,60.0,29.91,NW,304,2.0,9.0,42,0.00,,,0.00,weatherlink.com 1.10,2013-07-01 19:47:00,
2013-07-01 14:02:00,85.2,59.0,29.91,WNW,289,5.0,14.0,41,0.00,,,0.00,weatherlink.com 1.10,2013-07-01 20:02:00,
2013-07-01 14:17:00,86.3,59.0,29.90,WNW,298,4.0,9.0,40,0.00,,,0.00,weatherlink.com 1.10,2013-07-01 20:17:00,
2013-07-01 14:32:00,87.1,59.0,29.90,NW,321,1.0,8.0,39,0.00,,,0.00,weatherlink.com 1.10,2013-07-01 20:32:00,
2013-07-01 14:47:00,87.9,58.0,29.89,WNW,300,3.0,9.0,37,0.00,,,0.00,weatherlink.com 1.10,2013-07-01 20:47:00,
2013-07-01 15:02:00,86.5,58.0,29.89,NNE,19,4.0,13.0,38,0.00,,,0.00,weatherlink.com 1.10,2013-07-01 21:02:00,
2013-07-01 15:17:00,87.2,59.0,29.89,WNW,300,5.0,16.0,39,0.00,,,0.00,weatherlink.com 1.10,2013-07-01 21:17:00,
2013-07-01 15:32:00,87.0,59.0,29.89,NW,305,5.0,14.0,39,0.00,,,0.00,weatherlink.com 1.10,2013-07-01 21:32:00,
2013-07-01 15:47:00,86.5,59.0,29.89,North,8,3.0,12.0,39,0.00,,,0.00,weatherlink.com 1.10,2013-07-01 21:47:00,
2013-07-01 16:02:00,86.8,59.0,29.89,NNE,23,2.0,9.0,39,0.00,,,0.00,weatherlink.com 1.10,2013-07-01 22:02:00,
2013-07-01 16:17:00,87.6,61.0,29.89,NW,304,2.0,9.0,41,0.00,,,0.00,weatherlink.com 1.10,2013-07-01 22:17:00,
2013-07-01 16:32:00,87.4,60.0,29.88,NNW,337,0.0,8.0,39,0.00,,,0.00,weatherlink.com 1.10,2013-07-01 22:32:00,
2013-07-01 16:47:00,87.5,60.0,29.88,NW,319,9.0,10.0,40,0.00,,,0.00,weatherlink.com 1.10,2013-07-01 22:47:00,
2013-07-01 17:02:00,87.4,58.0,29.88,NNE,12,4.0,15.0,37,0.00,,,0.00,weatherlink.com 1.10,2013-07-01 23:02:00,
2013-07-01 17:32:00,86.5,59.0,29.88,North,4,0.0,11.0,39,0.00,,,0.00,weatherlink.com 1.10,2013-07-01 23:32:00,
2013-07-01 17:47:00,86.9,57.0,29.88,NW,319,4.0,13.0,36,0.00,,,0.00,weatherlink.com 1.10,2013-07-01 23:47:00,
2013-07-01 18:02:00,85.6,58.0,29.88,North,4,0.0,14.0,39,0.00,,,0.00,weatherlink.com 1.10,2013-07-02 00:02:00,
2013-07-01 18:17:00,85.6,60.0,29.89,WNW,285,1.0,10.0,42,0.00,,,0.00,weatherlink.com 1.10,2013-07-02 00:17:00,
2013-07-01 18:32:00,85.4,60.0,29.89,North,356,0.0,7.0,42,0.00,,,0.00,weatherlink.com 1.10,2013-07-02 00:32:00,
2013-07-01 18:47:00,83.5,59.0,29.89,North,4,0.0,9.0,43,0.00,,,0.00,weatherlink.com 1.10,2013-07-02 00:47:00,
2013-07-01 19:02:00,82.0,60.0,29.89,WNW,300,3.0,6.0,47,0.00,,,0.00,weatherlink.com 1.10,2013-07-02 01:02:00,
2013-07-01 19:17:00,81.0,60.0,29.90,NNW,347,0.0,2.0,49,0.00,,,0.00,weatherlink.com 1.10,2013-07-02 01:17:00,
2013-07-01 19:32:00,79.9,60.0,29.90,NNW,335,0.0,2.0,51,0.00,,,0.00,weatherlink.com 1.10,2013-07-02 01:32:00,
2013-07-01 19:47:00,79.1,60.0,29.90,NW,312,1.0,3.0,52,0.00,,,0.00,weatherlink.com 1.10,2013-07-02 01:47:00,
2013-07-01 20:02:00,79.2,61.0,29.91,North,355,0.0,5.0,54,0.00,,,0.00,weatherlink.com 1.10,2013-07-02 02:02:00,
2013-07-01 20:17:00,78.6,60.0,29.91,NNW,328,0.0,6.0,54,0.00,,,0.00,weatherlink.com 1.10,2013-07-02 02:17:00,
2013-07-01 20:32:00,77.9,61.0,29.91,NW,326,0.0,3.0,56,0.00,,,0.00,weatherlink.com 1.10,2013-07-02 02:32:00,
2013-07-01 20:47:00,77.2,60.0,29.91,NE,34,0.0,3.0,56,0.00,,,0.00,weatherlink.com 1.10,2013-07-02 02:47:00,
2013-07-01 21:02:00,75.9,59.0,29.92,North,352,0.0,2.0,57,0.00,,,0.00,weatherlink.com 1.10,2013-07-02 03:02:00,
2013-07-01 21:17:00,75.0,60.0,29.92,NNW,339,0.0,1.0,60,0.00,,,0.00,weatherlink.com 1.10,2013-07-02 03:17:00,
2013-07-01 21:32:00,74.3,60.0,29.93,NNW,335,0.0,1.0,62,0.00,,,0.00,weatherlink.com 1.10,2013-07-02 03:32:00,
2013-07-01 21:47:00,73.9,61.0,29.93,NNW,335,0.0,2.0,64,0.00,,,0.00,weatherlink.com 1.10,2013-07-02 03:47:00,
2013-07-01 22:02:00,73.7,61.0,29.94,NNW,335,0.0,2.0,64,0.00,,,0.00,weatherlink.com 1.10,2013-07-02 04:02:00,
2013-07-01 22:17:00,73.2,61.0,29.94,WNW,295,0.0,2.0,65,0.00,,,0.00,weatherlink.com 1.10,2013-07-02 04:17:00,
2013-07-01 22:32:00,72.8,60.0,29.94,NNW,342,0.0,2.0,65,0.00,,,0.00,weatherlink.com 1.10,2013-07-02 04:32:00,
2013-07-01 22:47:00,72.3,59.0,29.94,NW,316,0.0,2.0,64,0.00,,,0.00,weatherlink.com 1.10,2013-07-02 04:47:00,
2013-07-01 23:03:00,71.8,59.0,29.94,NW,322,0.0,2.0,65,0.00,,,0.00,weatherlink.com 1.10,2013-07-02 05:03:00,
2013-07-01 23:18:00,71.4,59.0,29.94,NNW,339,0.0,2.0,66,0.00,,,0.00,weatherlink.com 1.10,2013-07-02 05:18:00,
2013-07-01 23:33:00,71.0,59.0,29.94,NNW,330,0.0,1.0,67,0.00,,,0.00,weatherlink.com 1.10,2013-07-02 05:33:00,
2013-07-01 23:48:00,70.9,59.0,29.94,NW,309,0.0,2.0,67,0.00,,,0.00,weatherlink.com 1.10,2013-07-02 05:48:00,